Hourly Data

Hourly Data Report for March 11, 2012

All times are specified in Local Standard Time (LST). Add 1 hour to adjust for Daylight Saving Time where and when it is observed.

Metadata including Station Name, Province, Latitude, Longitude, Elevation, Climate ID, WMO ID, TC ID
CHARLOTTETOWN A
PRINCE EDWARD ISLAND
Latitude: 46°17'19.020" N Longitude: 63°07'43.070" W Elevation: 48.80 m
Climate ID: 8300300 WMO ID: 71706 TC ID: YYG
Hourly Data Report for March 11, 2012
Temp Definition
°C

Dew Point Temp Definition
°C

Rel Hum Definition
%

Wind Dir Definition
10's deg
Wind Spd Definition
km/h

Visibility Definition
km

Stn Press Definition
kPa

Hmdx Definition

Wind Chill Definition

Weather Definition

TIME
00:00 -9.7 -12.6 79 4 4 24.1 102.56 -12 Mainly Clear
01:00 -9.4 -12.1 81   0 24.1 102.57 Mainly Clear
02:00 -9.9 -12.7 80   0 24.1 102.59 Mainly Clear
03:00 -10.9 -13.4 82   0 24.1 102.57 Clear
04:00 -9.0 -12.0 79 13 4 24.1 102.57 -11 Clear
05:00 -9.7 -12.4 81 15 4 24.1 102.54 -12 Clear
06:00 -9.9 -12.6 81 13 6 24.1 102.54 -13 Clear
07:00 -8.9 -12.2 77 17 7 24.1 102.55 -13 Mainly Clear
08:00 -7.2 -10.5 77 18 9 24.1 102.58 -12 Mostly Cloudy
09:00 -4.3 -9.0 70 20 13 24.1 102.55 -9 Mostly Cloudy
10:00 -2.9 -9.4 61 22 13 24.1 102.52 -8 Mostly Cloudy
11:00 -1.5 -9.6 54 22 13 24.1 102.44 -6 Mostly Cloudy
12:00 -1.3 -9.4 54 20 15 24.1 102.38 -6 Mostly Cloudy
13:00 -0.1 -8.2 54 20 9 24.1 102.26 -3 Mostly Cloudy
14:00 0.3 -7.6 55 19 13 24.1 102.16 Mostly Cloudy
15:00 0.8 -6.6 58 21 19 19.3 102.02 Snow Showers
16:00 1.0 -4.7 66 22 20 24.1 101.90 Mostly Cloudy
17:00 1.0 -4.6 66 20 17 19.3 101.81 Snow Showers
18:00 1.7 -4.6 63 22 24 19.3 101.74 Snow Showers
19:00 0.6 -3.5 74 21 15 16.1 101.73 Snow Showers
20:00 -0.1 -2.7 83 21 22 12.9 101.67 -6 Snow Showers
21:00 -0.1 -2.6 83 22 13 16.1 101.64 -4 Snow Showers
22:00 0.2 -2.5 82 22 15 19.3 101.58 Snow Showers
23:00 0.0 -2.7 82 23 9 24.1 101.57 -3 Cloudy

Notes on Data Quality.

Legend
  • M = Missing
  • E = Estimated
  • NA = Not Available
  • ‡ = Partner data that is not subject to review by the National Climate Archives